| time (UTC) | temp F | wind direction | speed MPH | gust MPH | rain 1hr in | rain 24hr in | rain mn in | humidity % | barometer mb |
| 20260510174334 | 89 | 248 | 2.0 | 14.0 | 0.00 | 0.00 | 0.00 | 13 | 1018.1 |
| 20260510173332 | 89 | 300 | 8.0 | 13.0 | 0.00 | 0.00 | 0.00 | 13 | 1017.3 |
| 20260510172329 | 89 | 293 | 7.0 | 13.0 | 0.00 | 0.00 | 0.00 | 16 | 1017.3 |
| 20260510171331 | 89 | 290 | 9.0 | 14.0 | 0.00 | 0.00 | 0.00 | 15 | 1017.4 |
| 20260510170326 | 88 | 273 | 0.0 | 10.0 | 0.00 | 0.00 | 0.00 | 16 | 1017.3 |
| 20260510165340 | 87 | 273 | 6.0 | 10.0 | 0.00 | 0.00 | 0.00 | 15 | 1017.3 |
| 20260510164339 | 86 | 281 | 5.0 | 13.0 | 0.00 | 0.00 | 0.00 | 16 | 1017.3 |
| 20260510163336 | 86 | 282 | 4.0 | 10.0 | 0.00 | 0.00 | 0.00 | 18 | 1017.3 |
| 20260510162330 | 85 | 273 | 3.0 | 9.0 | 0.00 | 0.00 | 0.00 | 19 | 1018.3 |
| 20260510161329 | 84 | 218 | 3.0 | 11.0 | 0.00 | 0.00 | 0.00 | 20 | 1018.2 |
| 20260510160326 | 83 | 228 | 2.0 | 12.0 | 0.00 | 0.00 | 0.00 | 21 | 1018.3 |
| 20260510155340 | 82 | 288 | 5.0 | 13.0 | 0.00 | 0.00 | 0.00 | 22 | 1018.2 |
| 20260510154335 | 81 | 229 | 3.0 | 11.0 | 0.00 | 0.00 | 0.00 | 24 | 1018.2 |
| 20260510153338 | 81 | 273 | 4.0 | 11.0 | 0.00 | 0.00 | 0.00 | 26 | 1018.1 |
| 20260510152332 | 80 | 295 | 5.0 | 12.0 | 0.00 | 0.00 | 0.00 | 27 | 1018.1 |
| 20260510151329 | 79 | 265 | 3.0 | 9.0 | 0.00 | 0.00 | 0.00 | 31 | 1018.1 |
| 20260510150331 | 78 | 271 | 3.0 | 7.0 | 0.00 | 0.00 | 0.00 | 33 | 1018.2 |
| 20260510145326 | 77 | 277 | 0.0 | 9.0 | 0.00 | 0.00 | 0.00 | 37 | 1018.1 |
| 20260510144342 | 76 | 238 | 2.0 | 9.0 | 0.00 | 0.00 | 0.00 | 39 | 1018.0 |
| 20260510143335 | 75 | 210 | 3.0 | 7.0 | 0.00 | 0.00 | 0.00 | 41 | 1018.2 |
| 20260510142333 | 74 | 281 | 0.0 | 6.0 | 0.00 | 0.00 | 0.00 | 43 | 1017.4 |
| 20260510141329 | 74 | 263 | 0.0 | 1.0 | 0.00 | 0.00 | 0.00 | 46 | 1017.4 |
| 20260510140323 | 73 | 207 | 3.0 | 6.0 | 0.00 | 0.00 | 0.00 | 47 | 1017.3 |
| 20260510135342 | 72 | 238 | 0.0 | 2.0 | 0.00 | 0.00 | 0.00 | 47 | 1017.4 |
| 20260510134338 | 72 | 242 | 0.0 | 0.0 | 0.00 | 0.00 | 0.00 | 46 | 1017.3 |
| 20260510133333 | 71 | 230 | 0.0 | 0.0 | 0.00 | 0.00 | 0.00 | 47 | 1017.2 |
| 20260510132331 | 70 | 298 | 0.0 | 11.0 | 0.00 | 0.00 | 0.00 | 47 | 1017.0 |
| 20260510131329 | 69 | 295 | 5.0 | 13.0 | 0.00 | 0.00 | 0.00 | 48 | 1016.9 |
| 20260510130324 | 69 | 294 | 0.0 | 7.0 | 0.00 | 0.00 | 0.00 | 49 | 1016.8 |
| 20260510125338 | 69 | 267 | 0.0 | 11.0 | 0.00 | 0.00 | 0.00 | 49 | 1016.7 |
| 20260510124338 | 68 | 276 | 4.0 | 8.0 | 0.00 | 0.00 | 0.00 | 49 | 1016.5 |
| 20260510123332 | 67 | 270 | 0.0 | 6.0 | 0.00 | 0.00 | 0.00 | 50 | 1016.4 |
| 20260510122327 | 67 | 208 | 0.0 | 0.0 | 0.00 | 0.00 | 0.00 | 50 | 1016.4 |
| 20260510121326 | 67 | 281 | 0.0 | 0.0 | 0.00 | 0.00 | 0.00 | 50 | 1016.3 |
| 20260510120341 | 67 | 281 | 0.0 | 0.0 | 0.00 | 0.00 | 0.00 | 50 | 1016.2 |
| 20260510115335 | 67 | 238 | 0.0 | 5.0 | 0.00 | 0.00 | 0.00 | 50 | 1016.1 |
| 20260510114331 | 67 | 275 | 4.0 | 11.0 | 0.00 | 0.00 | 0.00 | 49 | 1016.1 |
| 20260510113329 | 66 | 264 | 0.0 | 1.0 | 0.00 | 0.00 | 0.00 | 49 | 1016.1 |
| 20260510112324 | 67 | 263 | 0.0 | 7.0 | 0.00 | 0.00 | 0.00 | 48 | 1015.9 |
| 20260510111338 | 66 | 261 | 0.0 | 3.0 | 0.00 | 0.00 | 0.00 | 48 | 1015.9 |
| 20260510110340 | 67 | 241 | 0.0 | 4.0 | 0.00 | 0.00 | 0.00 | 47 | 1015.9 |
| 20260510105335 | 67 | 302 | 0.0 | 5.0 | 0.00 | 0.00 | 0.00 | 46 | 1016.0 |
| 20260510104330 | 66 | 260 | 0.0 | 0.0 | 0.00 | 0.00 | 0.00 | 46 | 1016.0 |
| 20260510103330 | 66 | 280 | 0.0 | 0.0 | 0.00 | 0.00 | 0.00 | 45 | 1015.9 |
| 20260510102343 | 67 | 283 | 0.0 | 0.0 | 0.00 | 0.00 | 0.00 | 43 | 1015.8 |
| 20260510101338 | 67 | 277 | 0.0 | 0.0 | 0.00 | 0.00 | 0.00 | 41 | 1015.7 |
| 20260510100332 | 67 | 269 | 0.0 | 0.0 | 0.00 | 0.00 | 0.00 | 40 | 1015.7 |
| 20260510095328 | 67 | 271 | 0.0 | 0.0 | 0.00 | 0.00 | 0.00 | 39 | 1015.8 |
| 20260510094323 | 68 | 275 | 0.0 | 0.0 | 0.00 | 0.00 | 0.00 | 37 | 1014.9 |
| 20260510093339 | 67 | 286 | 0.0 | 0.0 | 0.00 | 0.00 | 0.00 | 36 | 1014.9 |
| 20260510092337 | 67 | 298 | 0.0 | 0.0 | 0.00 | 0.00 | 0.00 | 37 | 1014.8 |
| 20260510091329 | 67 | 300 | 0.0 | 0.0 | 0.00 | 0.00 | 0.00 | 37 | 1014.7 |
| 20260510090342 | 67 | 300 | 0.0 | 0.0 | 0.00 | 0.00 | 0.00 | 37 | 1014.7 |
| 20260510085337 | 66 | 300 | 0.0 | 0.0 | 0.00 | 0.00 | 0.00 | 40 | 1014.7 |
| 20260510084333 | 65 | 300 | 0.0 | 0.0 | 0.00 | 0.00 | 0.00 | 44 | 1014.7 |
| 20260510083328 | 65 | 295 | 0.0 | 0.0 | 0.00 | 0.00 | 0.00 | 45 | 1014.7 |
| 20260510082325 | 66 | 293 | 0.0 | 3.0 | 0.00 | 0.00 | 0.00 | 44 | 1014.9 |
| 20260510081324 | 66 | 293 | 0.0 | 0.0 | 0.00 | 0.00 | 0.00 | 44 | 1015.0 |
| 20260510080339 | 66 | 292 | 0.0 | 0.0 | 0.00 | 0.00 | 0.00 | 44 | 1015.0 |
| 20260510075334 | 67 | 292 | 0.0 | 0.0 | 0.00 | 0.00 | 0.00 | 44 | 1015.2 |
| 20260510074329 | 67 | 285 | 0.0 | 0.0 | 0.00 | 0.00 | 0.00 | 44 | 1015.3 |
| 20260510073329 | 66 | 288 | 0.0 | 0.0 | 0.00 | 0.00 | 0.00 | 44 | 1015.4 |
| 20260510072340 | 66 | 287 | 0.0 | 0.0 | 0.00 | 0.00 | 0.00 | 43 | 1015.5 |
| 20260510071335 | 67 | 281 | 0.0 | 2.0 | 0.00 | 0.00 | 0.00 | 41 | 1015.6 |
| 20260510070334 | 67 | 278 | 0.0 | 0.0 | 0.00 | 0.00 | 0.00 | 42 | 1015.5 |
| 20260510065329 | 67 | 271 | 0.0 | 0.0 | 0.00 | 0.00 | 0.00 | 41 | 1015.6 |
| 20260510064324 | 66 | 237 | 0.0 | 0.0 | 0.00 | 0.00 | 0.00 | 41 | 1015.7 |
| 20260510063323 | 65 | 234 | 0.0 | 0.0 | 0.00 | 0.00 | 0.00 | 41 | 1015.7 |
| 20260510062338 | 66 | 232 | 0.0 | 0.0 | 0.00 | 0.00 | 0.00 | 40 | 1015.8 |
| 20260510061333 | 65 | 232 | 0.0 | 0.0 | 0.00 | 0.00 | 0.00 | 39 | 1016.0 |
| 20260510060328 | 66 | 229 | 0.0 | 0.0 | 0.00 | 0.00 | 0.00 | 40 | 1016.1 |
| 20260510055327 | 67 | 170 | 0.0 | 0.0 | 0.00 | 0.00 | 0.00 | 37 | 1016.0 |
| 20260510054325 | 67 | 164 | 0.0 | 0.0 | 0.00 | 0.00 | 0.00 | 39 | 1015.9 |
| 20260510053340 | 68 | 157 | 0.0 | 0.0 | 0.00 | 0.00 | 0.00 | 37 | 1016.0 |
| 20260510052338 | 69 | 155 | 0.0 | 0.0 | 0.00 | 0.00 | 0.00 | 34 | 1016.1 |
| 20260510051334 | 69 | 155 | 0.0 | 0.0 | 0.00 | 0.00 | 0.00 | 33 | 1016.1 |
| 20260510050330 | 69 | 155 | 0.0 | 0.0 | 0.00 | 0.00 | 0.00 | 33 | 1016.2 |
| 20260510045325 | 70 | 155 | 0.0 | 0.0 | 0.00 | 0.00 | 0.00 | 34 | 1016.3 |
| 20260510044324 | 70 | 155 | 0.0 | 0.0 | 0.00 | 0.00 | 0.00 | 31 | 1016.2 |
| 20260510043339 | 72 | 155 | 0.0 | 1.0 | 0.00 | 0.00 | 0.00 | 31 | 1016.4 |
| 20260510042333 | 73 | 153 | 1.0 | 4.0 | 0.00 | 0.00 | 0.00 | 28 | 1016.3 |
| 20260510041335 | 73 | 154 | 0.0 | 3.0 | 0.00 | 0.00 | 0.00 | 28 | 1016.1 |
| 20260510040330 | 73 | 154 | 2.0 | 7.0 | 0.00 | 0.00 | 0.00 | 27 | 1016.3 |
| 20260510035328 | 74 | 157 | 0.0 | 5.0 | 0.00 | 0.00 | 0.00 | 26 | 1016.2 |
| 20260510034327 | 74 | 163 | 1.0 | 6.0 | 0.00 | 0.00 | 0.00 | 26 | 1016.1 |
| 20260510033325 | 75 | 186 | 0.0 | 5.0 | 0.00 | 0.00 | 0.00 | 25 | 1015.1 |
| 20260510032342 | 75 | 214 | 2.0 | 6.0 | 0.00 | 0.00 | 0.00 | 25 | 1015.0 |
| 20260510031338 | 76 | 157 | 2.0 | 6.0 | 0.00 | 0.00 | 0.00 | 23 | 1015.1 |
| 20260510030336 | 76 | 175 | 3.0 | 10.0 | 0.00 | 0.00 | 0.00 | 23 | 1014.9 |
| 20260510025331 | 76 | 142 | 4.0 | 12.0 | 0.00 | 0.00 | 0.00 | 23 | 1014.7 |
| 20260510024325 | 76 | 171 | 2.0 | 10.0 | 0.00 | 0.00 | 0.00 | 23 | 1014.7 |
| 20260510023344 | 75 | 148 | 3.0 | 5.0 | 0.00 | 0.00 | 0.00 | 23 | 1014.5 |
| 20260510022336 | 77 | 109 | 1.0 | 3.0 | 0.00 | 0.00 | 0.00 | 23 | 1014.4 |
| 20260510021331 | 78 | 108 | 0.0 | 0.0 | 0.00 | 0.00 | 0.00 | 19 | 1014.2 |
| 20260510020324 | 78 | 108 | 0.0 | 1.0 | 0.00 | 0.00 | 0.00 | 18 | 1014.0 |
| 20260510015340 | 80 | 108 | 1.0 | 3.0 | 0.00 | 0.00 | 0.00 | 16 | 1013.9 |
| 20260510014335 | 81 | 108 | 2.0 | 4.0 | 0.00 | 0.00 | 0.00 | 16 | 1013.9 |
| 20260510013330 | 82 | 109 | 0.0 | 0.0 | 0.00 | 0.00 | 0.00 | 14 | 1013.8 |
| 20260510012332 | 84 | 109 | 0.0 | 0.0 | 0.00 | 0.00 | 0.00 | 15 | 1013.7 |
| 20260510011325 | 85 | 109 | 0.0 | 2.0 | 0.00 | 0.00 | 0.00 | 13 | 1013.8 |
| 20260510010343 | 86 | 115 | 1.0 | 3.0 | 0.00 | 0.00 | 0.00 | 13 | 1013.7 |
| 20260510005336 | 86 | 115 | 0.0 | 4.0 | 0.00 | 0.00 | 0.00 | 13 | 1013.7 |
| 20260510004335 | 86 | 116 | 0.0 | 5.0 | 0.00 | 0.00 | 0.00 | 14 | 1013.6 |
| 20260510003330 | 86 | 119 | 0.0 | 6.0 | 0.00 | 0.00 | 0.00 | 12 | 1013.6 |
| 20260510002324 | 87 | 116 | 2.0 | 6.0 | 0.00 | 0.00 | 0.00 | 12 | 1013.8 |
| 20260510001323 | 88 | 76 | 2.0 | 5.0 | 0.00 | 0.00 | 0.00 | 12 | 1013.1 |
| 20260510000341 | 87 | 55 | 0.0 | 9.0 | 0.00 | 0.00 | 0.00 | 12 | 1013.1 |
| 20260509235336 | 88 | 144 | 2.0 | 7.0 | 0.00 | 0.00 | 0.00 | 12 | 1013.1 |
| 20260509234335 | 88 | 107 | 2.0 | 6.0 | 0.00 | 0.00 | 0.00 | 12 | 1013.1 |
| 20260509233330 | 88 | 128 | 0.0 | 6.0 | 0.00 | 0.00 | 0.00 | 12 | 1013.2 |
| 20260509232324 | 88 | 126 | 0.0 | 7.0 | 0.00 | 0.00 | 0.00 | 12 | 1013.3 |
| 20260509231339 | 88 | 160 | 4.0 | 6.0 | 0.00 | 0.00 | 0.00 | 12 | 1013.4 |
| 20260509230339 | 88 | 117 | 3.0 | 6.0 | 0.00 | 0.00 | 0.00 | 12 | 1013.5 |
| 20260509225335 | 88 | 108 | 2.0 | 4.0 | 0.00 | 0.00 | 0.00 | 12 | 1013.6 |
| 20260509224330 | 88 | 106 | 3.0 | 9.0 | 0.00 | 0.00 | 0.00 | 11 | 1013.7 |
| 20260509223329 | 89 | 80 | 4.0 | 9.0 | 0.00 | 0.00 | 0.00 | 12 | 1013.8 |
| 20260509222326 | 89 | 134 | 4.0 | 9.0 | 0.00 | 0.00 | 0.00 | 12 | 1014.0 |
| 20260509221341 | 89 | 128 | 4.0 | 11.0 | 0.00 | 0.00 | 0.00 | 13 | 1014.2 |
| 20260509220336 | 88 | 123 | 0.0 | 10.0 | 0.00 | 0.00 | 0.00 | 12 | 1014.4 |
| 20260509215335 | 89 | 200 | 2.0 | 10.0 | 0.00 | 0.19 | 0.00 | 13 | 1014.6 |
| 20260509214330 | 89 | 218 | 6.0 | 11.0 | 0.00 | 0.19 | 0.00 | 13 | 1014.6 |
| 20260509213328 | 88 | 282 | 3.0 | 14.0 | 0.00 | 0.19 | 0.00 | 13 | 1014.8 |
| 20260509212326 | 88 | 128 | 0.0 | 14.0 | 0.00 | 0.19 | 0.00 | 13 | 1014.1 |
| 20260509211341 | 89 | 123 | 3.0 | 12.0 | 0.00 | 0.19 | 0.00 | 12 | 1014.3 |
| 20260509210336 | 88 | 304 | 0.0 | 2.0 | 0.00 | 0.19 | 0.00 | 11 | 1014.5 |
| 20260509205335 | 88 | 15 | 0.0 | 10.0 | 0.00 | 0.19 | 0.00 | 11 | 1014.7 |
| 20260509204330 | 88 | 333 | 0.0 | 9.0 | 0.00 | 0.19 | 0.00 | 10 | 1014.8 |
| 20260509203326 | 87 | 304 | 4.0 | 13.0 | 0.00 | 0.19 | 0.00 | 13 | 1014.9 |
| 20260509202339 | 88 | 334 | 3.0 | 10.0 | 0.00 | 0.19 | 0.00 | 14 | 1015.1 |
| 20260509201338 | 88 | 102 | 4.0 | 10.0 | 0.00 | 0.19 | 0.00 | 13 | 1015.3 |
| 20260509200333 | 88 | 45 | 4.0 | 6.0 | 0.00 | 0.19 | 0.00 | 13 | 1015.3 |
| 20260509195328 | 88 | 129 | 2.0 | 7.0 | 0.00 | 0.19 | 0.00 | 13 | 1015.5 |
| 20260509194327 | 87 | 141 | 3.0 | 12.0 | 0.00 | 0.19 | 0.00 | 14 | 1015.5 |
| 20260509193342 | 86 | 133 | 5.0 | 10.0 | 0.00 | 0.19 | 0.00 | 13 | 1015.6 |
| 20260509192336 | 87 | 114 | 1.0 | 11.0 | 0.00 | 0.19 | 0.00 | 13 | 1015.6 |
| 20260509191334 | 86 | 214 | 0.0 | 5.0 | 0.00 | 0.19 | 0.00 | 14 | 1015.6 |
| 20260509190333 | 86 | 148 | 1.0 | 7.0 | 0.00 | 0.19 | 0.00 | 12 | 1016.0 |
| 20260509185328 | 86 | 137 | 3.0 | 11.0 | 0.00 | 0.19 | 0.00 | 16 | 1016.1 |
| 20260509184323 | 85 | 263 | 0.0 | 6.0 | 0.00 | 0.19 | 0.00 | 14 | 1016.2 |
| 20260509183342 | 86 | 111 | 1.0 | 7.0 | 0.00 | 0.19 | 0.00 | 16 | 1016.3 |
| 20260509182336 | 85 | 128 | 4.0 | 10.0 | 0.00 | 0.19 | 0.00 | 14 | 1016.5 |
| 20260509181331 | 85 | 91 | 2.0 | 10.0 | 0.00 | 0.19 | 0.00 | 17 | 1016.8 |
| 20260509180330 | 84 | 98 | 3.0 | 5.0 | 0.00 | 0.19 | 0.00 | 15 | 1016.8 |
| 20260509175325 | 84 | 137 | 3.0 | 6.0 | 0.00 | 0.19 | 0.00 | 19 | 1016.7 |